Date String (YYYY-MM-DD hh:mm:ss) UTC,Instrument flags,absolute air pressure of the measurement (hPa),sample flow rate (lpm),inlet stack bypass flow (lpm),air temperature of the measurement (°C),ambient temperature measured by the external sensor (°C),aerosol sample conditioner tube jacket temperature (°C),OPC LED temperature (°C),internal box temperature (°C),relative humidity of the measurement (%),span deviation,mass concentration of particles derived from Lorenz-Mie calculation of OPC scattering (μg/m³),mass concentration of particles derived from Lorenz-Mie calculation of OPC scattering (μg/m³),mass concentration of particles derived from Lorenz-Mie calculation of OPC scattering (μg/m³)
DateTimeUTC,F1_M11,P_M11,Q1_M11,Q2_M11,T1_M11,T2_M11,T3_M11,T4_M11,T5_M11,U1_M11,ZSPAN_M11,X0_M11,X2_M11,X1_M11
2024-06-12 21:00:00,SystemResetWarning,0828.7,4.99,000.00,028.2,026.4,000.0,036.8,029.6,016.9,0000.0,0013.12,0004.80,0004.21
2024-06-12 21:01:00,SystemResetWarning,0828.7,5.00,000.00,028.3,026.9,000.0,036.7,029.9,016.3,0000.0,0012.81,0004.80,0004.20
2024-06-12 21:02:00,SystemResetWarning,0828.7,5.01,000.00,028.4,027.3,000.0,036.7,030.1,015.6,0000.0,0012.80,0004.80,0004.20
2024-06-12 21:03:00,SystemResetWarning,0828.7,5.00,000.00,028.5,027.7,000.0,036.7,030.2,015.6,0000.0,0012.36,0004.81,0004.20
2024-06-12 21:04:00,SystemResetWarning,0828.7,5.00,000.00,028.6,028.0,000.0,036.7,030.4,015.6,0000.0,0012.35,0004.79,0004.19
2024-06-12 21:05:00,SystemResetWarning,0828.7,4.99,000.00,028.7,028.2,000.0,036.8,030.5,015.5,0000.0,0012.03,0004.73,0004.17
2024-06-12 21:06:00,SystemResetWarning,0828.7,5.00,000.00,028.8,028.4,000.0,036.8,030.6,015.2,0000.0,0010.97,0004.68,0004.16
2024-06-12 21:07:00,SystemResetWarning,0828.7,4.99,000.00,028.7,027.2,000.0,036.9,029.9,015.4,0000.0,0010.58,0004.67,0004.16
2024-06-12 21:08:00,SystemResetWarning,0828.6,5.02,000.00,028.3,025.5,000.0,036.9,029.1,015.9,0000.0,0010.37,0004.65,0004.15
2024-06-12 21:09:00,SystemResetWarning,0828.7,5.01,000.00,028.2,025.8,000.0,036.9,029.2,016.5,0000.0,0010.25,0004.65,0004.14
2024-06-12 21:10:00,SystemResetWarning,0828.7,5.00,000.00,028.2,026.3,000.0,036.8,029.5,016.9,0000.0,0010.20,0004.67,0004.13
2024-06-12 21:11:00,SystemResetWarning,0828.7,5.00,000.00,028.3,026.7,000.0,036.7,029.8,016.3,0000.0,0009.93,0004.67,0004.13
2024-06-12 21:12:00,SystemResetWarning,0828.7,4.99,000.00,028.4,027.1,000.0,036.7,030.0,016.4,0000.0,0009.86,0004.64,0004.12
2024-06-12 21:13:00,SystemResetWarning,0828.7,5.00,000.00,028.4,027.5,000.0,036.7,030.2,016.8,0000.0,0009.65,0004.64,0004.12
2024-06-12 21:14:00,SystemResetWarning,0828.7,4.99,000.00,028.5,027.9,000.0,036.7,030.4,017.5,0000.0,0010.34,0004.65,0004.11
2024-06-12 21:15:00,SystemResetWarning,0828.6,5.00,000.00,028.6,028.2,000.0,036.7,030.5,018.3,0000.0,0010.30,0004.67,0004.12
2024-06-12 21:16:00,SystemResetWarning,0828.7,5.01,000.00,028.7,028.4,000.0,036.8,030.6,018.4,0000.0,0009.89,0004.77,0004.14
2024-06-12 21:17:00,SystemResetWarning,0828.8,5.00,000.00,028.8,028.6,000.0,036.8,030.7,018.4,0000.0,0011.19,0004.90,0004.15
2024-06-12 21:18:00,SystemResetWarning,0828.7,4.98,000.00,028.8,027.6,000.0,036.9,030.2,018.3,0000.0,0011.45,0004.95,0004.15
2024-06-12 21:19:00,SystemResetWarning,0828.7,5.01,000.00,028.5,025.6,000.0,036.9,029.3,018.6,0000.0,0012.51,0005.01,0004.14
2024-06-12 21:20:00,SystemResetWarning,0828.7,5.02,000.00,028.3,025.7,000.0,036.9,029.3,018.8,0000.0,0013.06,0005.01,0004.13
2024-06-12 21:21:00,SystemResetWarning,0828.8,4.99,000.00,028.3,026.3,000.0,036.8,029.6,018.8,0000.0,0014.36,0004.98,0004.12
2024-06-12 21:22:00,SystemResetWarning,0828.8,5.00,000.00,028.3,026.7,000.0,036.8,029.8,018.4,0000.0,0014.81,0004.98,0004.10
2024-06-12 21:23:00,SystemResetWarning,0828.9,5.01,000.00,028.4,027.2,000.0,036.8,030.0,018.6,0000.0,0015.21,0005.00,0004.09
2024-06-12 21:24:00,SystemResetWarning,0828.9,5.00,000.00,028.5,027.6,000.0,036.8,030.2,018.8,0000.0,0015.35,0004.96,0004.07
2024-06-12 21:25:00,SystemResetWarning,0829.0,5.00,000.00,028.6,027.9,000.0,036.8,030.4,018.8,0000.0,0014.68,0004.93,0004.04
2024-06-12 21:26:00,SystemResetWarning,0828.9,5.01,000.00,028.6,028.2,000.0,036.8,030.5,018.8,0000.0,0015.21,0004.90,0004.01
2024-06-12 21:27:00,SystemResetWarning,0829.0,4.99,000.00,028.7,028.4,000.0,036.8,030.6,019.0,0000.0,0014.88,0004.80,0003.98
2024-06-12 21:28:00,SystemResetWarning,0828.9,4.99,000.00,028.8,027.7,000.0,036.9,030.3,018.9,0000.0,0013.27,0004.64,0003.93
2024-06-12 21:29:00,SystemResetWarning,0828.9,5.00,000.00,028.5,025.7,000.0,036.9,029.4,019.0,0000.0,0012.80,0004.55,0003.89
2024-06-12 21:30:00,SystemResetWarning,0828.9,5.02,000.00,028.2,025.5,000.0,036.9,029.2,019.5,0000.0,0012.50,0004.50,0003.86
2024-06-12 21:31:00,SystemResetWarning,0829.0,4.99,000.00,028.2,026.0,000.0,036.8,029.4,019.3,0000.0,0011.91,0004.46,0003.83
2024-06-12 21:32:00,SystemResetWarning,0828.9,4.99,000.00,028.3,026.5,000.0,036.8,029.7,019.3,0000.0,0010.99,0004.43,0003.79
2024-06-12 21:33:00,SystemResetWarning,0828.8,5.00,000.00,028.3,026.9,000.0,036.7,029.9,018.0,0000.0,0010.31,0004.34,0003.75
2024-06-12 21:34:00,SystemResetWarning,0828.9,5.01,000.00,028.4,027.3,000.0,036.7,030.1,018.7,0000.0,0009.84,0004.25,0003.69
2024-06-12 21:35:00,SystemResetWarning,0828.8,5.00,000.00,028.5,027.7,000.0,036.7,030.3,018.3,0000.0,0009.41,0004.18,0003.61
2024-06-12 21:36:00,SystemResetWarning,0828.8,4.99,000.00,028.6,028.0,000.0,036.7,030.4,017.6,0000.0,0009.17,0004.11,0003.54
2024-06-12 21:37:00,SystemResetWarning,0828.8,5.00,000.00,028.7,028.3,000.0,036.8,030.6,017.7,0000.0,0008.11,0003.98,0003.47
2024-06-12 21:38:00,SystemResetWarning,0828.9,5.01,000.00,028.8,028.5,000.0,036.8,030.7,017.8,0000.0,0008.04,0003.93,0003.41
2024-06-12 21:39:00,SystemResetWarning,0828.8,5.00,000.00,028.8,028.2,000.0,036.9,030.5,017.9,0000.0,0007.96,0003.87,0003.35
2024-06-12 21:40:00,SystemResetWarning,0828.8,4.98,000.00,028.6,026.3,000.0,036.9,029.5,018.8,0000.0,0007.85,0003.81,0003.29
2024-06-12 21:41:00,SystemResetWarning,0828.7,5.02,000.00,028.3,025.6,000.0,036.9,029.2,018.6,0000.0,0007.56,0003.74,0003.25
2024-06-12 21:42:00,SystemResetWarning,0828.7,5.00,000.00,028.3,026.2,000.0,036.9,029.5,017.8,0000.0,0007.60,0003.72,0003.23
2024-06-12 21:43:00,SystemResetWarning,0828.7,5.00,000.00,028.3,026.7,000.0,036.8,029.8,017.4,0000.0,0007.67,0003.72,0003.24
2024-06-12 21:44:00,SystemResetWarning,0828.8,5.01,000.00,028.4,027.1,000.0,036.8,030.0,018.1,0000.0,0007.52,0003.76,0003.24
2024-06-12 21:45:00,SystemResetWarning,0828.8,4.99,000.00,028.5,027.5,000.0,036.8,030.2,018.4,0000.0,0007.61,0003.81,0003.28
2024-06-12 21:46:00,SystemResetWarning,0828.8,5.00,000.00,028.6,027.8,000.0,036.8,030.4,017.6,0000.0,0007.72,0003.84,0003.32
2024-06-12 21:47:00,SystemResetWarning,0828.8,5.00,000.00,028.7,028.1,000.0,036.8,030.5,016.5,0000.0,0007.78,0003.90,0003.38
2024-06-12 21:48:00,SystemResetWarning,0828.8,5.01,000.00,028.8,028.4,000.0,036.8,030.7,017.0,0000.0,0007.89,0003.96,0003.44
2024-06-12 21:49:00,SystemResetWarning,0828.8,5.00,000.00,028.9,028.3,000.0,036.9,030.6,017.4,0000.0,0008.03,0004.04,0003.49
2024-06-12 21:50:00,SystemResetWarning,0828.7,4.98,000.00,028.7,026.5,000.0,036.9,029.7,017.8,0000.0,0008.12,0004.09,0003.54
2024-06-12 21:51:00,SystemResetWarning,0828.7,5.02,000.00,028.4,025.6,000.0,036.9,029.3,017.4,0000.0,0008.33,0004.16,0003.59
2024-06-12 21:52:00,SystemResetWarning,0828.7,5.00,000.00,028.3,026.2,000.0,036.9,029.5,017.2,0000.0,0009.13,0004.21,0003.64
2024-06-12 21:53:00,SystemResetWarning,0828.8,5.00,000.00,028.3,026.6,000.0,036.8,029.8,017.5,0000.0,0008.76,0004.23,0003.66
2024-06-12 21:54:00,SystemResetWarning,0828.8,5.00,000.00,028.4,027.1,000.0,036.8,030.0,017.0,0000.0,0008.45,0004.22,0003.67
2024-06-12 21:55:00,SystemResetWarning,0828.8,4.99,000.00,028.5,027.5,000.0,036.8,030.2,017.5,0000.0,0008.51,0004.24,0003.69
2024-06-12 21:56:00,SystemResetWarning,0828.9,5.01,000.00,028.6,027.8,000.0,036.8,030.4,017.9,0000.0,0008.89,0004.27,0003.71
2024-06-12 21:57:00,SystemResetWarning,0828.9,5.00,000.00,028.7,028.1,000.0,036.8,030.5,019.8,0000.0,0009.02,0004.31,0003.72
2024-06-12 21:58:00,SystemResetWarning,0828.8,4.99,000.00,028.8,028.4,000.0,036.8,030.7,020.5,0000.0,0009.73,0004.36,0003.73
2024-06-12 21:59:00,SystemResetWarning,0828.8,4.99,000.00,028.9,028.4,000.0,036.9,030.7,020.4,0000.0,0009.94,0004.41,0003.75
